Flag for Taiwan Weather past 2 weeks in Taichung, Taiwan

Now
95 °F

Scattered clouds.


Feels Like: 107 °F
Forecast: 81 / 94 °F
Wind: 20 mph from Southwest

Location: Chiang Kai Shek

Current Time: Aug 2, 2014 at 10:33:09 AM

Latest Report: Aug 2, 2014 at 10:00 AM


Visibility: N/A

Pressure: 29.50 "Hg

Humidity: 53%

Dew point: 75 °F

Location of TaichungLocation

Historic Weather in Taichung — Graph

°F

Taichung temperature yesterday

Maximum temperature yesterday: 93 °F (at 10:30 AM)
Minimum temperature yesterday: 82 °F (at 1:30 AM)
Average temperature yesterday: 87 °F

Past Weeks' High & Low Weather Summary

 TemperatureHumidityPressure
High99 °F (Jul 20, 11:30 AM)94% (Jul 23, 12:00 PM)29.89 "Hg (Jul 23, 12:00 PM)
Low79 °F (Jul 23, 12:00 PM)33% (Jul 21, 12:00 PM)29.15 "Hg (Jul 23, 8:00 AM)
Average87 °F70%29.65 "Hg
* Reported Jul 18 9:00 AM — Aug 2 9:00 AM, Taichung, Weather by CustomWeather, © 2014

Note: Actual official high and low records may vary slightly from our data, if they occured in-between our weather recording intervals... More about our weather records

Advertising

Taichung weather history for previous 24 hours

 ConditionsComfort  
Time TempWeatherWind HumidityBarometerVisibility
9:00 AM
Aug 2
91 °FPassing clouds.16 mph56%29.50 "HgN/A
8:30 AM91 °FPartly sunny.14 mph56%29.50 "HgN/A
8:00 AM88 °FPartly sunny.10 mph62%29.50 "HgN/A
7:30 AM88 °FBroken clouds.10 mph62%29.50 "HgN/A
7:00 AM86 °FBroken clouds.10 mph66%29.50 "HgN/A
6:30 AM86 °FBroken clouds.13 mph66%29.47 "HgN/A
6:00 AM84 °FBroken clouds.15 mph70%29.50 "HgN/A
5:30 AM84 °FBroken clouds.15 mph70%29.47 "HgN/A
5:00 AM84 °FPartly cloudy.17 mph70%29.47 "HgN/A
4:30 AM84 °FPartly cloudy.22 mph70%29.47 "HgN/A
4:00 AM86 °FPartly cloudy.23 mph70%29.47 "HgN/A
3:30 AM86 °FPassing clouds.21 mph70%29.47 "HgN/A
3:00 AM86 °FPassing clouds.23 mph70%29.47 "HgN/A
2:30 AM84 °FPassing clouds.22 mph74%29.47 "HgN/A
2:00 AM86 °FPassing clouds.22 mph70%29.47 "HgN/A
1:30 AM86 °FPassing clouds.20 mph70%29.47 "HgN/A
1:00 AM86 °FPassing clouds.24 mph70%29.47 "HgN/A
12:30 AM86 °FPassing clouds.23 mph75%29.47 "HgN/A
12:00 AM86 °FPassing clouds.21 mph75%29.47 "HgN/A
11:30 PM
Aug 1
86 °FPassing clouds.20 mph75%29.47 "HgN/A
11:00 PM86 °FPassing clouds.21 mph75%29.47 "HgN/A
10:30 PM86 °FPassing clouds.18 mph79%29.47 "Hg5 mi
10:00 PM86 °FPassing clouds.17 mph79%29.47 "Hg5 mi
9:30 PM86 °FPassing clouds.14 mph79%29.47 "Hg5 mi
9:00 PM84 °FPassing clouds.13 mph84%29.47 "Hg5 mi
8:30 PM84 °FPassing clouds.13 mph84%29.47 "Hg5 mi
8:00 PM84 °FPassing clouds.16 mph84%29.47 "Hg5 mi
7:30 PM84 °FPassing clouds.15 mph84%29.45 "Hg5 mi
7:00 PM86 °FPassing clouds.17 mph79%29.45 "Hg5 mi
6:30 PM86 °FPartly sunny.20 mph79%29.45 "HgN/A
6:00 PM86 °FBroken clouds.20 mph79%29.45 "HgN/A
5:30 PM88 °FScattered clouds.20 mph75%29.42 "HgN/A
5:00 PM90 °FPartly sunny.22 mph71%29.42 "HgN/A
4:30 PM90 °FScattered clouds.20 mph71%29.42 "HgN/A
4:00 PM91 °FScattered clouds.20 mph67%29.42 "HgN/A
3:30 PM91 °FScattered clouds.22 mph63%29.42 "HgN/A
3:00 PM93 °FPartly sunny.18 mph63%29.42 "HgN/A
2:30 PM91 °FPartly sunny.18 mph67%29.42 "HgN/A
2:00 PM91 °FScattered clouds.21 mph67%29.42 "HgN/A
1:30 PM93 °FBroken clouds.22 mph63%29.42 "Hg6 mi
1:00 PM93 °FBroken clouds.23 mph63%29.45 "Hg5 mi
12:30 PM93 °FBroken clouds.23 mph59%29.45 "HgN/A
12:00 PM93 °FBroken clouds.25 mph59%29.45 "HgN/A
11:30 AM91 °FSunny.22 mph63%29.45 "Hg10 mi
10:30 AM93 °FPartly sunny.25 mph56%29.47 "HgN/A
10:00 AM91 °FPartly sunny.25 mph63%29.47 "HgN/A
Weather by CustomWeather, © 2014

See weather overviewHow to use our weather pages